Weather History for Madera, CA

Change the Weather History Date:

Tuesday, December 4, 2012

  Actual Average Record
Temperature  
Mean Temperature 55 °F 47 °F  
Max Temperature 59 °F 57 °F 67 °F (2007)
Min Temperature 51 °F 37 °F 24 °F (2013)
Degree Days  
Heating Degree Days 10    
Month to date heating degree days 28  
Since 1 July heating degree days 396  
Cooling Degree Days 0    
Month to date cooling degree days 0  
Year to date cooling degree days 1737  
Growing Degree Days 5 (Base 50)    
Moisture  
Dew Point 52 °F    
Average Humidity 90    
Maximum Humidity 100    
Minimum Humidity 80    
Precipitation  
Precipitation 0.00 in 0.03 in 0.02 in (2010)
Month to date precipitation 0.58 0.12  
Year to date precipitation 8.98 10.44  
Since 1 July precipitation 2.76 2.44  
Snow  
Snow 0.00 in - - ()
Month to date snowfall 0.0  
Since 1 July snowfall 0.0  
Snow Depth 0.00 in    
Sea Level Pressure  
Sea Level Pressure 30.22 in    
Wind  
Wind Speed 3 mph (ESE)    
Max Wind Speed 10 mph    
Max Gust Speed 15 mph    
Visibility 2 miles    
Events Fog    
T = Trace of Precipitation, MM = Missing Value Source: NWS Daily Summary

Daily Weather History Graph

Daily Weather History Graph

Search for Another Location

Airport:

Trip Planner

Search our weather history database for the weather conditions in past years. The results will help you decide how hot, cold, wet, or windy it might be!

Date:

Astronomy

Dec. 04, 2012 Rise Set
Actual Time 6:58 AM PST 4:43 PM PST
Civil Twilight 6:29 AM PST 5:12 PM PST
Nautical Twilight 5:57 AM PST 5:44 PM PST
Astronomical Twilight 5:25 AM PST 6:15 PM PST
Moon 10:30 PM PST (12/4) 11:00 AM PST (12/4)
Length of Visible Light 10h 42m
Length of Day
9h 45m
Waning Gibbous, 68% of the Moon is Illuminated
Dec 4
Waning Gibbous
Dec 6
Last Quarter
Dec 13
New
Dec 19
First Quarter
Dec 28
Full

Hourly Weather History & Observations

Time (PST) Temp. Dew Point Humidity Pressure Visibility Wind Dir Wind Speed Gust Speed Precip Events Conditions
12:02 AM 53.6 °F 51.8 °F 94% 30.19 in 1.8 mi Calm Calm - N/A   Overcast
12:37 AM 51.8 °F 48.2 °F 88% 30.19 in 2.0 mi North 4.6 mph - N/A   Clear
12:53 AM 52.0 °F 50.0 °F 93% 30.19 in 2.0 mi NNE 4.6 mph - N/A   Clear
1:03 AM 51.8 °F 50.0 °F 94% 30.19 in 1.5 mi ENE 5.8 mph - N/A   Partly Cloudy
1:10 AM 51.8 °F 50.0 °F 94% 30.19 in 0.8 mi ENE 5.8 mph - N/A   Mist
1:53 AM 53.1 °F 52.0 °F 96% 30.21 in 0.2 mi ENE 6.9 mph - N/A Fog Fog
2:53 AM 53.1 °F 52.0 °F 96% 30.19 in 0.2 mi SSE 3.5 mph - N/A Fog Fog
3:53 AM 52.0 °F 51.1 °F 97% 30.19 in 0.2 mi South 4.6 mph - N/A Fog Fog
4:53 AM 51.1 °F 51.1 °F 100% 30.22 in 0.2 mi ESE 3.5 mph - N/A Fog Fog
5:53 AM 51.1 °F 51.1 °F 100% 30.24 in 0.2 mi Calm Calm - 0.01 in Fog Fog
6:53 AM 51.1 °F 50.0 °F 96% 30.24 in 0.2 mi SE 3.5 mph - N/A Fog Fog
7:53 AM 51.1 °F 51.1 °F 100% 30.26 in 0.2 mi SE 3.5 mph - N/A Fog Fog
8:53 AM 53.1 °F 52.0 °F 96% 30.26 in 0.2 mi ESE 8.1 mph - N/A Fog Fog
9:53 AM 53.1 °F 52.0 °F 96% 30.27 in 0.2 mi SE 8.1 mph - N/A Fog Fog
10:53 AM 53.1 °F 53.1 °F 100% 30.27 in 0.5 mi Calm Calm - N/A Fog Fog
11:13 AM 53.6 °F 53.6 °F 100% 30.26 in 1.2 mi South 3.5 mph - N/A   Overcast
11:32 AM 53.6 °F 53.6 °F 100% 30.25 in 2.0 mi SSE 3.5 mph - N/A   Overcast
11:53 AM 55.0 °F 53.1 °F 93% 30.25 in 2.5 mi South 3.5 mph - N/A   Overcast
12:12 PM 55.4 °F 53.6 °F 94% 30.24 in 3.0 mi SE 4.6 mph - N/A   Overcast
12:22 PM 55.4 °F 53.6 °F 94% 30.24 in 3.0 mi SE 6.9 mph - N/A   Overcast
12:53 PM 55.9 °F 53.1 °F 90% 30.22 in 4.0 mi SSE 4.6 mph - N/A   Overcast
1:10 PM 57.2 °F 53.6 °F 88% 30.21 in 5.0 mi SE 5.8 mph - N/A   Mostly Cloudy
1:40 PM 57.2 °F 53.6 °F 88% 30.20 in 5.0 mi ESE 5.8 mph - N/A   Haze
1:53 PM 57.9 °F 53.1 °F 84% 30.19 in 5.0 mi ESE 5.8 mph - N/A   Haze
2:53 PM 59.0 °F 53.1 °F 81% 30.19 in 6.0 mi East 4.6 mph - N/A   Haze
3:53 PM 59.0 °F 53.1 °F 81% 30.19 in 5.0 mi Calm Calm - N/A   Haze
4:53 PM 57.9 °F 53.1 °F 84% 30.20 in 6.0 mi Calm Calm - N/A   Haze
5:53 PM 57.0 °F 53.1 °F 87% 30.20 in 5.0 mi ENE 4.6 mph - N/A   Clear
6:53 PM 57.0 °F 53.1 °F 87% 30.20 in 5.0 mi Calm Calm - N/A   Partly Cloudy
7:53 PM 55.0 °F 52.0 °F 89% 30.21 in 3.0 mi Calm Calm - N/A   Clear
8:40 PM 53.6 °F 51.8 °F 94% 30.22 in 2.5 mi West 4.6 mph - N/A   Clear
8:53 PM 54.0 °F 52.0 °F 93% 30.22 in 2.5 mi WNW 5.8 mph - N/A   Clear
9:04 PM 53.6 °F 53.6 °F 100% 30.22 in 3.0 mi Calm Calm - N/A   Clear
9:21 PM 53.6 °F 53.6 °F 100% 30.22 in 2.5 mi Calm Calm - N/A   Clear
9:33 PM 53.6 °F 53.6 °F 100% 30.22 in 3.0 mi Calm Calm - N/A   Clear
9:46 PM 53.6 °F 51.8 °F 94% 30.22 in 2.5 mi Calm Calm - N/A   Clear
9:53 PM 54.0 °F 53.1 °F 97% 30.22 in 2.5 mi Calm Calm - N/A   Clear
10:04 PM 55.4 °F 51.8 °F 88% 30.22 in 3.0 mi NE 4.6 mph - N/A   Clear
10:32 PM 53.6 °F 51.8 °F 94% 30.21 in 2.5 mi East 3.5 mph - N/A   Clear
10:53 PM 54.0 °F 52.0 °F 93% 30.22 in 2.5 mi East 4.6 mph - N/A   Clear
11:10 PM 53.6 °F 51.8 °F 94% 30.21 in 3.0 mi East 4.6 mph - N/A   Clear
11:23 PM 51.8 °F 51.8 °F 100% 30.21 in 2.5 mi ESE 3.5 mph - N/A   Clear
11:53 PM 51.1 °F 50.0 °F 96% 30.22 in 1.5 mi Calm Calm - N/A   Clear